TimeMDT,TemperatureF,Dew PointF,Humidity,Sea Level PressureIn,VisibilityMPH,Wind Direction,Wind SpeedMPH,Gust SpeedMPH,PrecipitationIn,Events,Conditions,WindDirDegrees,DateUTC
12:56 AM,25.0,3.9,41,30.19,-9999.0,SE,11.5,-,N/A,,Unknown,140,2013-03-13 06:56:00
1:56 AM,25.0,3.9,41,30.18,-9999.0,SE,10.4,-,N/A,,Unknown,140,2013-03-13 07:56:00
2:56 AM,26.1,3.9,39,30.16,-9999.0,SSE,10.4,-,N/A,,Unknown,150,2013-03-13 08:56:00
3:56 AM,26.1,3.9,39,30.12,-9999.0,SSE,11.5,-,N/A,,Unknown,160,2013-03-13 09:56:00
4:56 AM,26.1,3.9,39,30.12,-9999.0,South,11.5,-,N/A,,Unknown,170,2013-03-13 10:56:00
5:56 AM,27.0,3.9,37,30.12,-9999.0,South,11.5,-,N/A,,Unknown,180,2013-03-13 11:56:00
6:56 AM,27.0,3.9,37,30.12,-9999.0,South,10.4,-,N/A,,Unknown,170,2013-03-13 12:56:00
7:56 AM,27.0,5.0,39,30.12,-9999.0,South,9.2,-,N/A,,Unknown,170,2013-03-13 13:56:00
8:56 AM,32.0,7.0,35,30.11,-9999.0,South,9.2,-,N/A,,Unknown,180,2013-03-13 14:56:00
9:56 AM,39.0,10.0,30,30.11,-9999.0,South,4.6,-,N/A,,Unknown,190,2013-03-13 15:56:00
10:56 AM,48.0,16.0,28,30.08,-9999.0,SW,8.1,-,N/A,,Unknown,230,2013-03-13 16:56:00
11:56 AM,57.0,25.0,29,30.05,-9999.0,West,9.2,-,N/A,,Unknown,260,2013-03-13 17:56:00
12:56 PM,60.1,27.0,28,30.02,-9999.0,WSW,11.5,18.4,N/A,,Unknown,250,2013-03-13 18:56:00
1:56 PM,64.0,28.0,26,29.98,-9999.0,West,21.9,25.3,N/A,,Unknown,270,2013-03-13 19:56:00
2:56 PM,64.0,28.0,26,29.96,-9999.0,West,24.2,33.4,N/A,,Unknown,270,2013-03-13 20:56:00
3:56 PM,64.9,28.0,25,29.95,-9999.0,WNW,19.6,28.8,N/A,,Unknown,300,2013-03-13 21:56:00
4:56 PM,66.0,27.0,23,29.94,-9999.0,WNW,25.3,29.9,N/A,,Unknown,290,2013-03-13 22:56:00
5:56 PM,63.0,28.0,27,29.96,-9999.0,WNW,19.6,-,N/A,,Unknown,290,2013-03-13 23:56:00
6:56 PM,54.0,28.0,37,29.97,-9999.0,WNW,9.2,-,N/A,,Unknown,300,2013-03-14 00:56:00
7:56 PM,53.1,28.0,38,29.98,-9999.0,WNW,5.8,-,N/A,,Unknown,290,2013-03-14 01:56:00
8:56 PM,51.1,28.9,43,29.98,-9999.0,NW,8.1,-,N/A,,Unknown,310,2013-03-14 02:56:00
9:56 PM,50.0,30.0,46,30.01,-9999.0,NW,9.2,-,N/A,,Unknown,320,2013-03-14 03:56:00
10:56 PM,48.0,30.0,50,30.01,-9999.0,NW,4.6,-,N/A,,Unknown,320,2013-03-14 04:56:00
11:56 PM,46.0,30.9,56,30.01,-9999.0,NW,6.9,-,N/A,,Unknown,310,2013-03-14 05:56:00